FENGYUN 1C DEB

Satellite information

Favourite Embed

Satellite Type and Status

DEBRISIN ORBIT

Key statistics

Satellite FENGYUN 1C DEB at a glance.

Uptime

9495

Days in orbit

Revolutions

≈ 14.2

Per day

Orbit

SSO

Sun Synchronous Orbit

Inclination

99.1

Latest

Satellite identification and parameters

Extended collection of information and parameters for FENGYUN 1C DEB.

Object identification

Identified? True

Debris? True

Object name: FENGYUN 1C DEB

International designator: 1999-025DLB

Object number (NORAD): 35123

Object ID (CCSDS): 35123

Country: PEOPLES REPUBLIC OF CHINA (PRC)

Current information (Y/N): Y

RCS size: SMALL

Orbital parameters

Period: 101.152 minutes

Inclination: 99.1194 deg

SMA: 7191.317 km

Apoapsis: 848.565 km

Periapsis: 777.799 km

RAAN: 299.6533 deg

Eccentricy: 0.0049202

Argument of periapsis: 351.3549 deg

Mean anomaly: 8.6776 deg

Mean motion: 14.23607033 rev/day

Mean motion (dot): 0.00001717 rev/day2

B* drag term: 0.00076476 1/REarth

Two-line elements (TLE)

Creation date: May 6, 2025, 3:54 a.m.

Reference frame: TEME

Reference center: EARTH

Epoch: May 5, 2025, 5:14 a.m. UTC

TLE line 0: 0 FENGYUN 1C DEB

TLE line 1: 1 35123U 99025DLB 25125.21846462 .00001717 00000-0 76476-3 0 9996

TLE line 2: 2 35123 99.1194 299.6533 0049202 351.3549 8.6776 14.23607033579210

Live tracking on map

Real-time ground track for satellite FENGYUN 1C DEB.

In-orbit conjunctions

A list of the most updated potential collisions computed for object FENGYUN 1C DEB.

Target Orbit TCA Probability of collision Miss distance Type
CZ-6A R/B LEO 2024-12-13 18:30:41 0.0005637452 346.0 (m) ROCKET BODY
ALEXIS LEO 2024-10-13 16:12:37 0.0005427026 240.0 (m) PAYLOAD
SL-14 DEB LEO 2024-07-14 21:27:11 0.0001155337 106.0 (m) DEBRIS

Associated space launch

Chinese polar orbiting meteorological satellite

FENGYUN 1C DEB was lifted into orbit during the mission ‘Long March 4B | Feng Yun 1C’, on board a Long March 4B space rocket.

The launch took place on May 10, 1999, 1:33 a.m. from Launch Complex 7.

For more information about the launch, click the button.

Launch to space Long March 4B | Feng Yun 1C
Long March 4B | Feng Yun 1C

Agency: N/A

Status: Launch Successful

Launch date: May 10, 1999, 1:33 a.m. UTC

Rocket: Long March 4B

Launch pad: Launch Complex 7

Location: Taiyuan Satellite Launch Center, People's Republic of China

...

Latest news about this satellite

There are no fresh news available about this satellite. Check back as we update our databases every day.


Newsletter sign-up

Weekly statistics, charts and insights to help you stay on top of the space industry.